Location: Bruch
(44.2051°N, 0.4120°E)
Time: 11:04:41
(UTC+00:00)

Cosmos 1782 - Pass Details

Date: 29 November 2020
Orbit: 537 x 551 km, 82.5° (Epoch: 26 January)

Event Time Altitude Azimuth Distance (km) Brightness Sun altitude
Exits shadow 05:50:05 23° 304° (NW) 1,198 4.0 -14.3°
Maximum altitude 05:51:28 29° 270° (W) 1,035 3.7 -14.0°
Drops below altitude 10° 05:54:57 10° 210° (SSW) 1,824 5.3 -13.4°
Sets 05:57:18 0° 199° (SSW) 2,713 6.4 -13.0°
